This is the latest recevied weather packets stored in our database for station/object WX6HNX-12. If no packets are shown the sender has not sent any weather packets the latest 10 day(s).
| Time | Temp. | Humidity | Pressure | Rain* | Wind** | Luminosity | Snow |
|---|---|---|---|---|---|---|---|
| 1777852974 | 23.33° C | 42% | 1008.5 hPa | 0 mm | - | - | - |
| 1777852675 | 23.33° C | 41% | 1008.6 hPa | 0 mm | - | - | - |
| 1777852374 | 23.89° C | 40% | 1008.4 hPa | 0 mm | - | - | - |
| 1777852075 | 23.89° C | 40% | 1008.4 hPa | 0 mm | - | - | - |
| 1777851775 | 24.44° C | 40% | 1008.3 hPa | 0 mm | - | - | - |
| 1777851474 | 24.44° C | 40% | 1008.4 hPa | 0 mm | - | - | - |
| 1777851174 | 24.44° C | 39% | 1008.5 hPa | 0 mm | - | - | - |
| 1777850874 | 24.44° C | 40% | 1008.7 hPa | 0 mm | - | - | - |
| 1777850276 | 23.89° C | 41% | 1008.7 hPa | 0 mm | - | - | - |
| 1777849976 | 23.89° C | 40% | 1008.7 hPa | 0 mm | - | - | - |
| 1777849675 | 23.89° C | 40% | 1008.6 hPa | 0 mm | - | - | - |
| 1777849377 | 23.89° C | 40% | 1008.7 hPa | 0 mm | - | - | - |
| 1777849076 | 23.89° C | 40% | 1008.7 hPa | 0 mm | - | - | - |
| 1777848775 | 24.44° C | 41% | 1008.8 hPa | 0 mm | - | - | - |
| 1777848475 | 23.89° C | 41% | 1008.8 hPa | 0 mm | - | - | - |
| 1777848172 | 23.89° C | 42% | 1008.9 hPa | 0 mm | - | - | - |
| 1777847877 | 23.33° C | 41% | 1009.1 hPa | 0 mm | - | - | - |
| 1777847576 | 23.33° C | 42% | 1009.1 hPa | 0 mm | - | - | - |
| 1777847275 | 23.33° C | 41% | 1009.3 hPa | 0 mm | - | - | - |
| 1777846762 | 24.44° C | 40% | 1009.4 hPa | 0 mm | - | - | - |
| 1777845865 | 24.44° C | 40% | 1009.4 hPa | 0 mm | - | - | - |
| 1777845562 | 23.89° C | 40% | 1009.5 hPa | 0 mm | - | - | - |
| 1777845263 | 23.89° C | 42% | 1009.6 hPa | 0 mm | - | - | - |
| 1777844965 | 23.33° C | 42% | 1009.6 hPa | 0 mm | - | - | - |
| 1777844662 | 22.78° C | 42% | 1009.7 hPa | 0 mm | - | - | - |
* Rain latest hour (hover to see other rain measurements)
** Current wind speed in m/s (hover to see current wind gust speed)